{"data":{"norad_id":49503,"epoch":"2026-05-12T01:21:47.979648Z","epoch_age_seconds":1193037,"freshness":"AGED","line1":"1 49503U 21113A   26132.05680532 -.00000293  00000+0  00000+0 0  9995","line2":"2 49503  62.8445 210.7069 6447392 272.5222  20.5946  2.00564720 32674","mean_motion":2.0056472,"eccentricity":0.6447392,"inclination_deg":62.8445,"raan_deg":210.7069,"arg_perigee_deg":272.5222,"mean_anomaly_deg":20.5946,"bstar":0,"rev_number":3267,"period_min":717.97273219338,"perigee_km":3057.6784113772,"apogee_km":37306.546170944,"semimajor_km":26560.249291161,"source":"CELESTRAK","updated_at":"2026-05-25T13:37:57.237615Z"}}